Вернуться в каталог

DELTA 1 DEB

АктивенSSO
NORAD 42082·DEBRIS·🇺🇸 United States

Запущен Dec 15, 1968 с Vandenberg Space Force Base

Loading…

Ближайшие Пролёты (ближайшие 24 часа)

TLE

СвежийSource: Space-Track

Эпоха: Sep 14, 2026, 15:17 UTC

1 42082U 68114J   26257.63701742  .00000091  00000-0  96739-3 0  9995
2 42082 101.9787 205.2905 0086441 141.4452  30.9414 12.42852375581529

Отслеживайте DELTA 1 DEB в реальном времени с AllMySat

Download on the App Store